Flag for U.S.A. Weather past 2 weeks in New York, New York, U.S.A.

Now
77 °F

Warm.


Feels Like: 79 °F
Forecast: 67 / 82 °F
Wind: N/A

Location: New York City - Central Park

Current Time: Jul 25, 2014 at 7:29:10 PM

Latest Report: Jul 25, 2014 at 6:51 PM


Visibility: N/A

Pressure: N/A

Humidity: 47%

Dew point: 55 °F

Location of New YorkLocation

Historic Weather in New York — Graph

°F

New York temperature yesterday

Maximum temperature yesterday: 79 °F (at 2:51 PM)
Minimum temperature yesterday: 72 °F (at 6:51 AM)
Average temperature yesterday: 75 °F

Past Weeks' High & Low Weather Summary

 TemperatureHumidityPressure
High86 °F (Jul 23, 12:51 PM)97% (Jul 14, 2:51 AM)30.25 "Hg (Jul 14, 2:51 AM)
Low65 °F (Jul 18, 5:51 AM)28% (Jul 19, 4:51 AM)29.74 "Hg (Jul 15, 5:51 PM)
Average75 °F64%30.01 "Hg
* Reported Jul 10 5:51 PM — Jul 25 5:51 PM, New York, Weather by CustomWeather, © 2014

Note: Actual official high and low records may vary slightly from our data, if they occured in-between our weather recording intervals... More about our weather records

Advertising

New York weather history for previous 24 hours

 ConditionsComfort  
Time TempWeatherWind HumidityBarometerVisibility
5:51 PM
Jul 25
79 °FPleasantly warm.N/A39%N/AN/A
4:51 PM79 °FWarm.N/A45%N/AN/A
3:51 PM81 °FPleasantly warm.N/A37%N/AN/A
2:51 PM81 °FPleasantly warm.N/A34%N/AN/A
1:51 PM81 °FSunny.5 mph39%29.98 "Hg10 mi
12:51 PM78 °FSunny.No wind43%30.00 "Hg10 mi
11:51 AM78 °FSunny.3 mph43%30.01 "Hg10 mi
10:51 AM74 °FSunny.3 mph46%30.02 "Hg10 mi
9:51 AM72 °FSunny.8 mph49%30.03 "Hg10 mi
8:51 AM70 °FSunny.9 mph59%30.03 "Hg10 mi
7:51 AM69 °FSunny.6 mph57%30.01 "Hg10 mi
6:51 AM67 °FSunny.6 mph61%29.98 "Hg10 mi
5:51 AM67 °FPassing clouds.7 mph61%29.97 "Hg10 mi
4:51 AM67 °FClear.6 mph61%29.96 "Hg10 mi
3:51 AM67 °FPassing clouds.No wind63%29.95 "Hg10 mi
2:51 AM69 °FOvercast.3 mph57%29.94 "Hg10 mi
1:51 AM69 °FPassing clouds.No wind55%29.93 "Hg10 mi
12:51 AM70 °FClear.5 mph53%29.92 "Hg10 mi
11:51 PM
Jul 24
73 °FClear.N/A48%29.91 "Hg10 mi
10:51 PM74 °FPassing clouds.No wind53%29.90 "Hg10 mi
9:51 PM75 °FPassing clouds.3 mph50%29.89 "Hg10 mi
8:51 PM77 °FPartly sunny.5 mph47%29.88 "Hg10 mi
7:51 PM76 °FSunny.6 mph50%29.86 "Hg10 mi
Weather by CustomWeather, © 2014

See weather overviewHow to use our weather pages